Location: Banff
(51.1670°N, 115.5670°W)
Time: 07:40:12
(UTC-06:00)

Amateur Radio Satellites - All Passes

Search period start: 27 May 2017 07:10
Search period end: 28 May 2017 07:10
Location: Banff, 51.1670°N, 115.5670°W

Satellite Date Start Highest point End Downlink Frequencies (MHz)
Time Altitude Azimuth
DOVE 4 27 May 07:10:23 07:14:18 38° 98° (E) 07:18:16 437.250
SO-50 27 May 07:13:45 07:18:17 74° 46° (NE) 07:22:48 436.795
CUTE-I 27 May 07:14:52 07:19:18 26° 92° (E) 07:23:42 437.470
STARS 27 May 07:15:31 07:18:35 19° 269° (W) 07:21:41 437.465
XW-2D 27 May 07:36:23 07:40:05 41° 98° (E) 07:43:44 145.860 - 145.880
M-CUBED/EXP-1 PRIME 27 May 07:37:25 07:40:15 19° 56° (NE) 07:42:57 437.505
XW-2B 27 May 07:44:18 07:48:05 49° 99° (E) 07:51:49 145.730 - 145.750
AO-85 27 May 07:46:44 07:50:08 26° 328° (NNW) 07:53:30 145.980
AO-7 27 May 07:49:17 07:56:14 31° 313° (NW) 08:03:12 .
NUDT-PHONESAT 27 May 07:53:24 07:57:06 48° 100° (E) 08:00:46 437.300
XW-2F 27 May 07:56:23 08:00:14 65° 102° (ESE) 08:04:03 145.980 - 146.000
XW-2C 27 May 07:57:57 08:01:50 70° 103° (ESE) 08:05:40 145.795 - 145.815
KAITUO 1B 27 May 08:02:50 08:06:39 63° 102° (ESE) 08:10:25 145.475/437.950
SEEDS 27 May 08:05:13 08:05:28 10° 84° (E) 08:05:42 437.485
BEESAT 2 27 May 08:09:21 08:13:20 66° 314° (NW) 08:17:24 435.950
XW-2A 27 May 08:14:07 08:15:52 13° 90° (E) 08:17:38 145.665 - 145.685
STRAND 1 27 May 08:21:23 08:26:27 69° 257° (WSW) 08:31:35 437.568
BEESAT 3 27 May 08:28:55 08:32:22 27° 327° (NNW) 08:35:52 437.485
LilacSat-2 27 May 08:37:03 08:40:46 43° 290° (WNW) 08:44:28 437.200
HO-68 27 May 08:43:13 08:50:00 42° 97° (E) 08:56:44 435.675
RS-15 27 May 08:43:59 08:55:44 45° 11° (N) 09:07:12 29.354- 29.394
DOVE 4 27 May 08:48:27 08:51:54 26° 296° (WNW) 08:55:23 437.250
FO-29 27 May 08:49:27 08:52:10 14° 48° (NE) 08:54:56 435.910
CUTE 1.7 + AOD 2 27 May 08:49:52 08:53:56 40° 97° (E) 08:57:57 437.475
CUTE-I 27 May 08:54:28 08:59:42 57° 292° (WNW) 09:04:55 437.470
SO-50 27 May 08:55:01 08:58:17 20° 246° (WSW) 09:01:32 436.795
AAUSAT CUBESAT 2 27 May 09:00:29 09:03:24 18° 90° (E) 09:06:18 437.432
AO-73 27 May 09:06:30 09:08:32 13° 86° (E) 09:10:33 145.935
M-CUBED/EXP-1 PRIME 27 May 09:10:21 09:14:26 59° 252° (WSW) 09:18:14 437.505
XW-2D 27 May 09:11:03 09:14:03 22° 297° (WNW) 09:17:01 145.860 - 145.880
PRISM 27 May 09:12:27 09:15:08 17° 58° (ENE) 09:17:49 437.425
UNISAT 6 27 May 09:18:27 09:21:09 16° 57° (ENE) 09:23:53 437.425
XW-2B 27 May 09:19:11 09:21:58 19° 298° (WNW) 09:24:44 145.730 - 145.750
ZACube-1 27 May 09:20:02 09:23:14 19° 89° (E) 09:26:27 437.345
NUDT-PHONESAT 27 May 09:28:02 09:30:43 19° 298° (WNW) 09:33:22 437.300
AO-85 27 May 09:30:10 09:31:50 12° 352° (N) 09:33:29 145.980
XW-2F 27 May 09:31:37 09:33:56 15° 300° (WNW) 09:36:14 145.980 - 146.000
XW-2C 27 May 09:33:22 09:35:33 15° 301° (WNW) 09:37:42 145.795 - 145.815
CUBEBUG 2 27 May 09:34:59 09:39:30 60° 101° (E) 09:44:08 437.445
SEEDS 27 May 09:37:38 09:41:54 81° 104° (ESE) 09:46:06 437.485
KAITUO 1B 27 May 09:37:56 09:40:13 15° 300° (WNW) 09:42:31 145.475/437.950
NO-84 27 May 09:39:31 09:43:20 29° 138° (SE) 09:47:01 435.350 FM
AO-7 27 May 09:43:17 09:46:25 13° 339° (NNW) 09:49:33 .
UWE-3 27 May 09:43:47 09:48:13 47° 99° (E) 09:52:42 435.000/436.395/437.385
XW-2A 27 May 09:45:35 09:48:57 53° 288° (WNW) 09:52:19 145.665 - 145.685
BEESAT 2 27 May 09:48:55 09:51:50 19° 336° (NNW) 09:54:45 435.950
STRAND 1 27 May 10:05:17 10:06:37 11° 277° (W) 10:07:57 437.568
BEESAT 3 27 May 10:09:22 10:11:14 13° 350° (N) 10:13:06 437.485
Oscar 11 27 May 10:13:29 10:17:37 39° 97° (E) 10:21:43 .
TIGRISAT 27 May 10:21:10 10:25:20 50° 69° (ENE) 10:29:35 435.000
CUTE 1.7 + AOD 2 27 May 10:26:02 10:29:37 26° 296° (WNW) 10:33:09 437.475
HO-68 27 May 10:30:58 10:37:55 52° 298° (WNW) 10:44:48 435.675
FO-29 27 May 10:31:06 10:36:14 69° 71° (ENE) 10:41:42 435.910
AAUSAT CUBESAT 2 27 May 10:35:08 10:39:12 54° 289° (WNW) 10:43:12 437.432
CUTE-I 27 May 10:36:30 10:38:42 13° 312° (NW) 10:40:54 437.470
EO-88 27 May 10:39:13 10:41:27 15° 90° (E) 10:43:42 145.990 - 145.960
AO-73 27 May 10:40:51 10:45:25 88° 101° (ESE) 10:50:01 145.935
PRISM 27 May 10:45:52 10:49:58 67° 257° (WSW) 10:54:06 437.425
DELFI C3 27 May 10:47:01 10:50:21 26° 94° (E) 10:53:40 145.870
YUBILEINY 27 May 10:49:58 10:55:46 19° 47° (NE) 11:01:33 435.215
UNISAT 6 27 May 10:53:01 10:57:18 77° 256° (WSW) 11:01:44 437.425
ZACube-1 27 May 10:55:25 10:59:55 64° 288° (WNW) 11:04:27 437.345
RS-15 27 May 10:58:05 11:10:30 74° 42° (NE) 11:22:21 29.354- 29.394
AO-85 27 May 11:11:34 11:13:50 15° 17° (NNE) 11:16:07 145.980
CUBEBUG 2 27 May 11:12:20 11:15:46 22° 299° (WNW) 11:19:17 437.445
EO-79 27 May 11:12:59 11:15:48 18° 59° (ENE) 11:18:39 145.935-145.965
SEEDS 27 May 11:14:36 11:17:00 15° 303° (WNW) 11:19:25 437.485
NO-84 27 May 11:16:20 11:20:42 84° 338° (NNW) 11:24:49 435.350 FM
UWE-3 27 May 11:20:40 11:24:27 26° 297° (WNW) 11:28:17 435.000/436.395/437.385
BEESAT 2 27 May 11:29:29 11:31:06 12° 0° (N) 11:32:44 435.950
BEESAT 3 27 May 11:48:16 11:50:26 14° 14° (NNE) 11:52:37 437.485
Oscar 11 27 May 11:49:54 11:53:37 28° 296° (WNW) 11:57:19 .
AIST 2D 27 May 11:51:51 11:55:20 63° 74° (ENE) 11:58:53 435.315
NANOSAT C BR1 27 May 11:56:21 12:00:13 38° 67° (ENE) 12:04:08 145.865
O/OREOS (USA 219) 27 May 11:56:38 11:57:39 11° 30° (NNE) 11:58:41 437.305
TIGRISAT 27 May 11:59:03 12:02:20 21° 269° (W) 12:05:40 435.000
POLYITAN 1 27 May 12:01:33 12:05:34 46° 69° (ENE) 12:09:38 437.675
DUCHIFAT 1 27 May 12:06:29 12:10:25 43° 68° (ENE) 12:14:24 145.980
QB50P2 27 May 12:10:09 12:14:16 60° 72° (ENE) 12:18:27 145.880/145.840
EO-88 27 May 12:11:51 12:15:28 53° 288° (WNW) 12:19:04 145.990 - 145.960
ESTCUBE 1 27 May 12:12:56 12:16:01 18° 89° (E) 12:19:05 437.505/2401.250
FO-29 27 May 12:18:23 12:22:05 19° 272° (W) 12:25:53 435.910
AO-73 27 May 12:18:23 12:21:03 16° 303° (WNW) 12:23:43 145.935
Oscar 19 27 May 12:19:11 12:21:58 15° 51° (NE) 12:24:45 437.125/150
HO-68 27 May 12:20:06 12:24:07 16° 321° (NW) 12:28:08 435.675
DELFI C3 27 May 12:21:37 12:25:13 34° 292° (WNW) 12:28:46 145.870
BUGSAT 1 27 May 12:22:01 12:25:09 22° 62° (ENE) 12:28:19 437.445
ZACube-1 27 May 12:33:58 12:35:21 11° 307° (NW) 12:36:45 437.345
YUBILEINY 27 May 12:46:00 12:54:47 62° 73° (ENE) 13:03:32 435.215
EO-79 27 May 12:46:59 12:51:08 65° 257° (WSW) 12:55:21 145.935-145.965
AO-85 27 May 12:51:25 12:55:12 42° 40° (NE) 12:59:08 145.980
LO-87 27 May 12:52:00 12:55:33 67° 102° (ESE) 12:59:06 145.935 - 145.965
SPROUT 27 May 12:53:04 12:54:54 12° 87° (E) 12:56:41 437.525
NO-84 27 May 12:54:31 12:58:37 48° 357° (N) 13:02:27 435.350 FM
VELOX 1 27 May 13:05:03 13:07:47 16° 89° (E) 13:10:28 145.980
BEESAT 2 27 May 13:07:28 13:10:23 18° 24° (NNE) 13:13:17 435.950
RS-15 27 May 13:11:10 13:22:24 46° 249° (WSW) 13:33:10 29.354- 29.394
AO-7 27 May 13:19:45 13:25:04 19° 34° (NE) 13:30:24 .
BEESAT 3 27 May 13:25:24 13:29:08 35° 37° (NE) 13:32:51 437.485
AIST 2D 27 May 13:27:29 13:28:58 12° 272° (W) 13:30:28 435.315
NANOSAT C BR1 27 May 13:32:30 13:36:03 26° 266° (W) 13:39:37 145.865
O/OREOS (USA 219) 27 May 13:34:03 13:38:22 41° 53° (NE) 13:42:38 437.305
DX 1 27 May 13:38:11 13:40:08 13° 87° (E) 13:42:04 434.975-435.025
POLYITAN 1 27 May 13:38:19 13:41:35 22° 268° (W) 13:44:54 437.675
Gurwin Techsat 1B 27 May 13:40:57 13:45:47 37° 63° (ENE) 13:50:39 435.225
DUCHIFAT 1 27 May 13:42:56 13:46:17 23° 267° (W) 13:49:40 145.980
QB50P2 27 May 13:47:40 13:50:28 17° 270° (W) 13:53:16 145.880/145.840
ESTCUBE 1 27 May 13:48:47 13:53:16 64° 288° (WNW) 13:57:43 437.505/2401.250
Oscar 19 27 May 13:55:15 14:00:26 70° 70° (ENE) 14:05:37 437.125/150
BUGSAT 1 27 May 13:56:28 14:00:18 44° 261° (W) 14:04:10 437.445
50 SAT 27 May 13:59:12 14:02:04 24° 95° (E) 14:04:54 437.505
LO-87 27 May 14:26:48 14:28:32 13° 301° (WNW) 14:30:16 145.935 - 145.965
SPROUT 27 May 14:27:07 14:31:24 86° 287° (WNW) 14:35:42 437.525
AO-85 27 May 14:31:57 14:35:31 31° 239° (WSW) 14:39:13 145.980
NO-84 27 May 14:32:32 14:36:37 66° 18° (NNE) 14:40:20 435.350 FM
VELOX 1 27 May 14:40:20 14:44:43 69° 288° (WNW) 14:49:04 145.980
YUBILEINY 27 May 14:43:20 14:51:11 38° 277° (W) 14:59:03 435.215
BEESAT 2 27 May 14:44:48 14:48:53 64° 45° (NE) 14:52:54 435.950
ITAMSAT 1 27 May 14:59:49 15:04:17 30° 61° (ENE) 15:08:47 435.822/435.867
UKube-1 27 May 15:02:48 15:07:04 56° 101° (ESE) 15:11:17 .
BEESAT 3 27 May 15:02:59 15:06:47 40° 238° (WSW) 15:10:33 437.485
AO-7 27 May 15:08:10 15:16:07 53° 58° (ENE) 15:24:07 .
DX 1 27 May 15:12:34 15:16:56 85° 284° (WNW) 15:21:16 434.975-435.025
O/OREOS (USA 219) 27 May 15:13:43 15:17:40 30° 254° (WSW) 15:21:35 437.305
Gurwin Techsat 1B 27 May 15:20:44 15:25:43 40° 263° (W) 15:30:44 435.225
ESTCUBE 1 27 May 15:27:48 15:29:12 11° 308° (NW) 15:30:37 437.505/2401.250
50 SAT 27 May 15:31:59 15:34:56 27° 293° (WNW) 15:37:50 437.505
Oscar 19 27 May 15:36:28 15:40:15 20° 270° (W) 15:44:05 437.125/150
ITUPSAT 1 27 May 16:03:10 16:07:13 26° 93° (E) 16:11:13 437.325
SPROUT 27 May 16:04:35 16:06:40 13° 305° (NW) 16:08:44 437.525
MOZHAYETS 4 27 May 16:09:12 16:12:30 19° 89° (E) 16:15:46
NO-84 27 May 16:10:27 16:14:03 36° 219° (SW) 16:17:21 435.350 FM
VELOX 1 27 May 16:18:51 16:20:22 12° 307° (NW) 16:21:54 145.980
BEESAT 2 27 May 16:23:18 16:26:16 20° 245° (WSW) 16:29:12 435.950
BEESAT 27 May 16:35:38 16:40:18 49° 100° (E) 16:44:57 436.000
ITAMSAT 1 27 May 16:38:35 16:43:35 49° 260° (W) 16:48:37 435.822/435.867
UKube-1 27 May 16:39:32 16:42:45 21° 300° (WNW) 16:45:58 .
DOVE 4 27 May 16:46:31 16:48:00 12° 55° (NE) 16:49:28 437.250
DX 1 27 May 16:50:18 16:52:28 14° 305° (NW) 16:54:38 434.975-435.025
CUBESAT XI-V 27 May 16:59:13 17:01:00 12° 85° (E) 17:02:46 437.345
AO-7 27 May 17:01:08 17:09:02 47° 260° (W) 17:17:02 .
CUTE-I 27 May 17:04:58 17:07:43 14° 50° (NE) 17:10:29 437.470
HO-68 27 May 17:33:35 17:37:39 16° 40° (NE) 17:41:43 435.675
ITUPSAT 1 27 May 17:40:37 17:45:17 49° 292° (WNW) 17:49:55 437.325
MOZHAYETS 4 27 May 17:45:28 17:50:06 64° 289° (WNW) 17:54:41
LilacSat-2 27 May 17:50:08 17:53:07 22° 63° (ENE) 17:56:08 437.200
BEESAT 27 May 18:13:51 18:17:51 27° 299° (WNW) 18:21:52 436.000
DOVE 4 27 May 18:20:32 18:25:01 73° 74° (ENE) 18:29:19 437.250
XW-2D 27 May 18:22:14 18:25:51 42° 70° (ENE) 18:29:32 145.860 - 145.880
XW-2B 27 May 18:30:08 18:33:49 49° 71° (ENE) 18:37:34 145.730 - 145.750
KKS-1 27 May 18:30:10 18:34:35 63° 102° (ESE) 18:39:00 437.445
CUBESAT XI-V 27 May 18:34:27 18:39:09 83° 105° (ESE) 18:43:47 437.345
NUDT-PHONESAT 27 May 18:37:17 18:40:52 46° 71° (ENE) 18:44:31 437.300
CUTE-I 27 May 18:41:36 18:46:51 67° 70° (ENE) 18:52:09 437.470
XW-2F 27 May 18:41:46 18:45:33 64° 73° (ENE) 18:49:22 145.980 - 146.000
XW-2C 27 May 18:43:44 18:47:32 71° 73° (ENE) 18:51:24 145.795 - 145.815
KAITUO 1B 27 May 18:47:20 18:51:04 61° 73° (ENE) 18:54:51 145.475/437.950
XW-2A 27 May 18:51:12 18:52:26 12° 59° (ENE) 18:53:40 145.665 - 145.685
STARS 27 May 18:57:45 19:02:04 54° 101° (E) 19:06:23 437.465
SEEDS 27 May 19:00:20 19:02:52 16° 58° (ENE) 19:05:23 437.485
CUBEBUG 2 27 May 19:04:12 19:06:15 13° 55° (NE) 19:08:20 437.445
PCSat 27 May 19:09:47 19:13:19 18° 106° (ESE) 19:16:53 145.827
UWE-3 27 May 19:13:03 19:14:09 11° 53° (NE) 19:15:16 435.000/436.395/437.385
HO-68 27 May 19:16:58 19:23:53 53° 62° (ENE) 19:30:50 435.675
LilacSat-2 27 May 19:23:31 19:27:10 41° 262° (W) 19:30:54 437.200
MOZHAYETS 4 27 May 19:24:45 19:26:23 12° 308° (NW) 19:28:01
CUTE 1.7 + AOD 2 27 May 19:46:59 19:51:10 55° 71° (ENE) 19:55:23 437.475
AAUSAT CUBESAT 2 27 May 19:55:12 19:58:35 24° 63° (ENE) 20:02:00 437.432
XW-2D 27 May 19:57:23 20:00:15 20° 268° (W) 20:03:09 145.860 - 145.880
DOVE 4 27 May 20:00:39 20:03:12 15° 271° (W) 20:05:42 437.250
XW-2B 27 May 20:05:42 20:08:18 17° 269° (W) 20:10:56 145.730 - 145.750
AO-73 27 May 20:06:36 20:09:33 18° 59° (ENE) 20:12:33 145.935
KKS-1 27 May 20:07:32 20:10:46 20° 301° (WNW) 20:13:58 437.445
NUDT-PHONESAT 27 May 20:12:28 20:15:03 18° 269° (W) 20:17:38 437.300
CUBESAT XI-V 27 May 20:12:58 20:15:55 17° 304° (WNW) 20:18:51 437.345
XW-2F 27 May 20:18:07 20:20:07 14° 272° (W) 20:22:08 145.980 - 146.000
XW-2C 27 May 20:20:30 20:22:12 13° 272° (W) 20:23:57 145.795 - 145.815
ZACube-1 27 May 20:20:37 20:24:09 26° 63° (ENE) 20:27:47 437.345
XW-2A 27 May 20:21:20 20:24:40 71° 257° (WSW) 20:28:05 145.665 - 145.685
CUTE-I 27 May 20:23:21 20:27:23 22° 270° (W) 20:31:28 437.470
KAITUO 1B 27 May 20:23:25 20:25:29 14° 271° (W) 20:27:34 145.475/437.950
STRAND 1 27 May 20:26:49 20:31:14 28° 93° (E) 20:35:38 437.568
SEEDS 27 May 20:33:44 20:38:00 79° 257° (WSW) 20:42:18 437.485
STARS 27 May 20:34:44 20:38:06 22° 300° (WNW) 20:41:29 437.465
CUBEBUG 2 27 May 20:38:00 20:42:12 88° 74° (ENE) 20:46:32 437.445
UWE-3 27 May 20:45:34 20:49:45 67° 73° (ENE) 20:54:06 435.000/436.395/437.385
PCSat 27 May 20:50:33 20:56:00 89° 127° (SE) 21:01:29 145.827
HO-68 27 May 21:05:07 21:11:48 41° 263° (W) 21:18:34 435.675
Oscar 11 27 May 21:12:48 21:17:03 57° 71° (ENE) 21:21:21 .
EO-88 27 May 21:22:08 21:24:25 16° 61° (ENE) 21:26:42 145.990 - 145.960
CUTE 1.7 + AOD 2 27 May 21:24:14 21:27:21 19° 270° (W) 21:30:28 437.475
Tancredo 1 27 May 21:28:01 21:30:40 26° 148° (SSE) 21:33:19 437.200
AAUSAT CUBESAT 2 27 May 21:29:52 21:33:51 42° 262° (W) 21:37:52 437.432
DELFI C3 27 May 21:37:02 21:40:34 30° 66° (ENE) 21:44:05 145.870
AO-73 27 May 21:41:06 21:45:19 65° 258° (WSW) 21:49:42 145.935
ZACube-1 27 May 21:56:12 22:00:15 43° 262° (W) 22:04:26 437.345
STRAND 1 27 May 22:05:41 22:10:40 50° 293° (WNW) 22:15:37 437.568
ISS 27 May 22:11:57 22:15:03 38° 153° (SSE) 22:18:10 437.550
CUBEBUG 2 27 May 22:18:01 22:19:31 12° 275° (W) 22:21:04 437.445
M-CUBED/EXP-1 PRIME 27 May 22:18:26 22:21:30 34° 104° (ESE) 22:24:30 437.505
PRISM 27 May 22:23:55 22:25:19 11° 87° (E) 22:26:42 437.425
UWE-3 27 May 22:24:09 22:26:44 16° 272° (W) 22:29:22 435.000/436.395/437.385
PCSat 27 May 22:35:30 22:40:05 27° 328° (NNW) 22:44:43 145.827
UNISAT 6 27 May 22:40:03 22:43:04 17° 89° (E) 22:46:06 437.425
Oscar 11 27 May 22:50:27 22:53:33 19° 270° (W) 22:56:41 .
EO-88 27 May 22:54:06 22:57:43 56° 259° (W) 23:01:22 145.990 - 145.960
Tancredo 1 27 May 23:03:05 23:06:10 83° 167° (SSE) 23:09:16 437.200
DELFI C3 27 May 23:11:48 23:15:19 30° 265° (W) 23:18:53 145.870
SO-50 27 May 23:12:47 23:17:00 37° 121° (ESE) 23:21:12 436.795
ESTCUBE 1 27 May 23:16:54 23:20:52 31° 64° (ENE) 23:24:51 437.505/2401.250
FO-29 27 May 23:17:41 23:23:45 43° 97° (E) 23:30:28 435.910
LO-87 27 May 23:32:40 23:36:08 58° 73° (ENE) 23:39:39 145.935 - 145.965
TIGRISAT 27 May 23:43:28 23:48:00 56° 101° (E) 23:52:35 435.000
STRAND 1 27 May 23:47:33 23:48:43 11° 313° (NW) 23:49:54 437.568
ISS 27 May 23:48:07 23:51:25 86° 352° (N) 23:54:44 437.550
SPROUT 27 May 23:50:47 23:53:48 19° 60° (ENE) 23:56:50 437.525
M-CUBED/EXP-1 PRIME 27 May 23:53:19 23:55:50 20° 303° (WNW) 23:58:19 437.505
PRISM 27 May 23:57:06 00:01:12 85° 288° (WNW) 00:05:16 437.425
YUBILEINY 28 May 00:02:56 00:06:50 14° 67° (ENE) 00:10:44 435.215
VELOX 1 28 May 00:06:41 00:10:25 27° 63° (ENE) 00:14:09 145.980
UNISAT 6 28 May 00:15:40 00:20:15 71° 288° (WNW) 00:24:54 437.425
PCSat 28 May 00:22:13 00:25:22 15° 354° (N) 00:28:31 145.827
EO-79 28 May 00:27:29 00:29:55 15° 89° (E) 00:32:21 145.935-145.965
UKube-1 28 May 00:28:25 00:30:44 14° 55° (NE) 00:33:04 .
50 SAT 28 May 00:36:23 00:39:08 23° 65° (ENE) 00:41:54 437.505
DX 1 28 May 00:37:50 00:41:14 23° 61° (ENE) 00:44:38 434.975-435.025
Tancredo 1 28 May 00:38:52 00:41:57 85° 1° (N) 00:45:03 437.200
AIST 2D 28 May 00:45:01 00:48:23 37° 97° (E) 00:51:43 435.315
SO-50 28 May 00:53:04 00:57:26 44° 322° (NW) 01:01:48 436.795
ESTCUBE 1 28 May 00:53:20 00:57:35 38° 263° (W) 01:01:52 437.505/2401.250
FO-29 28 May 01:02:56 01:08:51 46° 295° (WNW) 01:15:29 435.910
LO-87 28 May 01:08:16 01:09:58 13° 271° (W) 01:11:39 145.935 - 145.965
NANOSAT C BR1 28 May 01:10:44 01:14:38 34° 97° (E) 01:18:30 145.865
POLYITAN 1 28 May 01:16:36 01:20:41 42° 98° (E) 01:24:46 437.675
DUCHIFAT 1 28 May 01:20:33 01:24:32 38° 97° (E) 01:28:30 145.980
TIGRISAT 28 May 01:20:47 01:24:22 23° 299° (WNW) 01:27:59 435.000
ISS 28 May 01:24:40 01:27:58 84° 193° (SSW) 01:31:16 437.550
SPROUT 28 May 01:25:09 01:29:20 59° 259° (WSW) 01:33:33 437.525
QB50P2 28 May 01:25:18 01:29:31 55° 101° (E) 01:33:43 145.880/145.840
RS-15 28 May 01:30:57 01:39:41 24° 98° (E) 01:48:30 29.354- 29.394
BUGSAT 1 28 May 01:33:16 01:36:11 18° 91° (E) 01:39:06 437.445
PRISM 28 May 01:34:06 01:35:50 12° 305° (NW) 01:37:33 437.425
ITUPSAT 1 28 May 01:41:34 01:42:22 10° 48° (NE) 01:43:11 437.325
VELOX 1 28 May 01:42:32 01:46:43 41° 262° (W) 01:50:55 145.980
YUBILEINY 28 May 01:53:09 02:01:36 58° 91° (E) 02:10:09 435.215
UNISAT 6 28 May 01:54:13 01:56:11 13° 306° (NW) 01:58:11 437.425
UKube-1 28 May 02:01:50 02:06:10 89° 273° (W) 02:10:30 .
EO-79 28 May 02:01:55 02:06:11 72° 286° (WNW) 02:10:25 145.935-145.965
Oscar 19 28 May 02:02:40 02:05:55 17° 87° (E) 02:09:09 437.125/150
PCSat 28 May 02:07:01 02:10:54 19° 20° (NNE) 02:14:47 145.827
50 SAT 28 May 02:08:47 02:11:53 31° 263° (W) 02:15:00 437.505
BEESAT 28 May 02:11:17 02:14:26 18° 55° (NE) 02:17:36 436.000
DX 1 28 May 02:12:54 02:17:09 51° 260° (W) 02:21:24 434.975-435.025
Tancredo 1 28 May 02:14:42 02:17:35 37° 207° (SSW) 02:20:27 437.200
AIST 2D 28 May 02:18:40 02:21:24 21° 296° (WNW) 02:24:06 435.315
SO-50 28 May 02:35:52 02:38:59 18° 345° (NNW) 02:42:05 436.795
NANOSAT C BR1 28 May 02:46:33 02:50:18 31° 295° (WNW) 02:54:02 145.865
FO-29 28 May 02:50:26 02:52:39 12° 315° (NW) 02:54:59 435.910
POLYITAN 1 28 May 02:52:45 02:56:18 26° 297° (WNW) 02:59:50 437.675
DUCHIFAT 1 28 May 02:56:29 03:00:05 28° 296° (WNW) 03:03:42 145.980
ISS 28 May 03:01:19 03:04:13 28° 211° (SSW) 03:07:06 437.550
QB50P2 28 May 03:01:48 03:04:59 21° 299° (WNW) 03:08:09 145.880/145.840
BUGSAT 1 28 May 03:07:49 03:11:52 54° 289° (WNW) 03:15:56 437.445
ITUPSAT 1 28 May 03:14:33 03:19:10 53° 69° (ENE) 03:23:51 437.325
MOZHAYETS 4 28 May 03:15:36 03:19:42 32° 64° (ENE) 03:23:49
Gurwin Techsat 1B 28 May 03:31:04 03:36:19 55° 101° (E) 03:41:31 435.225
RS-15 28 May 03:37:56 03:50:02 74° 123° (ESE) 04:02:21 29.354- 29.394
EO-79 28 May 03:39:46 03:41:12 11° 306° (NW) 03:42:36 145.935-145.965
Oscar 19 28 May 03:40:43 03:45:55 83° 287° (WNW) 03:51:05 437.125/150
UKube-1 28 May 03:41:15 03:42:51 12° 273° (W) 03:44:26 .
BEESAT 28 May 03:46:51 03:51:37 82° 255° (WSW) 03:56:27 436.000
PCSat 28 May 03:50:16 03:55:36 50° 44° (NE) 04:00:52 145.827
YUBILEINY 28 May 03:50:41 03:58:49 41° 295° (WNW) 04:07:04 435.215
O/OREOS (USA 219) 28 May 03:53:05 03:55:59 17° 100° (E) 03:58:51 437.305
KKS-1 28 May 03:58:28 04:01:19 17° 57° (ENE) 04:04:10 437.445
CUBESAT XI-V 28 May 04:06:28 04:10:08 23° 60° (ENE) 04:13:48 437.345
SO-50 28 May 04:18:17 04:21:07 16° 10° (N) 04:23:56 436.795
STARS 28 May 04:25:15 04:27:38 15° 55° (NE) 04:30:01 437.465
ITAMSAT 1 28 May 04:45:52 04:50:46 40° 97° (E) 04:55:40 435.822/435.867
AO-85 28 May 04:51:40 04:54:38 19° 116° (ESE) 04:57:32 145.980
MOZHAYETS 4 28 May 04:52:30 04:56:47 37° 263° (W) 05:01:07
ITUPSAT 1 28 May 04:53:27 04:57:18 24° 268° (W) 05:01:11 437.325
AO-7 28 May 04:56:05 05:04:04 46° 99° (E) 05:12:01 .
Gurwin Techsat 1B 28 May 05:11:30 05:16:00 29° 300° (WNW) 05:20:29 435.225
Oscar 19 28 May 05:21:17 05:24:30 17° 307° (NW) 05:27:44 437.125/150
BEESAT 28 May 05:28:12 05:30:11 12° 274° (W) 05:32:10 436.000
O/OREOS (USA 219) 28 May 05:30:14 05:34:50 74° 300° (WNW) 05:39:26 437.305
KKS-1 28 May 05:32:56 05:37:21 76° 256° (WSW) 05:41:49 437.445
PCSat 28 May 05:33:56 05:38:53 37° 245° (WSW) 05:43:49 145.827
CUBESAT XI-V 28 May 05:42:30 05:47:09 58° 259° (W) 05:51:50 437.345
RS-15 28 May 05:51:20 06:03:25 56° 332° (NNW) 06:15:30 29.354- 29.394
YUBILEINY 28 May 05:55:27 05:58:49 12° 323° (NW) 06:02:12 435.215
SO-50 28 May 05:58:45 06:02:51 33° 33° (NNE) 06:06:57 436.795
STARS 28 May 05:58:59 06:03:21 89° 258° (WSW) 06:07:45 437.465
STRAND 1 28 May 06:11:53 06:14:19 14° 50° (NE) 06:16:46 437.568
DOVE 4 28 May 06:15:31 06:17:08 12° 87° (E) 06:18:43 437.250
BEESAT 2 28 May 06:18:56 06:21:50 20° 115° (ESE) 06:24:48 435.950
ITAMSAT 1 28 May 06:25:28 06:30:13 37° 297° (WNW) 06:34:58 435.822/435.867
AO-85 28 May 06:30:39 06:34:40 62° 315° (NW) 06:38:36 145.980
BEESAT 3 28 May 06:33:50 06:37:45 60° 127° (SE) 06:41:45 437.485
AO-7 28 May 06:48:59 06:57:02 55° 301° (WNW) 07:05:05 .
LilacSat-2 28 May 06:52:19 06:54:44 16° 89° (E) 06:57:08 437.200
CUTE-I 28 May 06:54:13 06:57:47 18° 88° (E) 07:01:21 437.470
